COSMOS 2251 DEB, 34040

Orbit data source: Space-Track

COSMOS 2251 DEB, 34040 is space debris in LEO originally from a launch on Wed, 16 Jun 1993 UTC launched from the Plesetsk Missile And Space Complex (PKMTR). The debris from Iridium 33, an American commercial communications satellite, has been tracked extensively since its accidental collision with the defunct Russian satellite Cosmos 2251 in 2009. This event, occurring at high speed in low Earth orbit (LEO), generated thousands of pieces of space debris, significantly increasing the risk of further collisions. The Iridium 33 debris cloud has impacted space traffic management and orbital debris mitigation strategies, making it a subject of ongoing study in space situational awareness.

Loading next visibility...
Identifier
34040, 1993-036JB
Orbit
LEO
Country
Flag of CISCIS
Related business
Manufacturer
Unknown
Mission
Spacecraft
Bus & Motor
Unknown
Mass
Unknown
Launch date (UTC)
1993-06-16 (33 years ago)
Launch vehicle
Unknown
Launch site
Plesetsk Missile And Space Complex (PKMTR)
Object type
Payload
Rocket body
Debris
Shape & HBR
Unknown shape, 0.1 m
Radar Cross Section
Small (<0.1 m²)

Expand to show TLE details & history
Last TLE update: 8 hours ago

TLE from 8 hours ago
0 COSMOS 2251 DEB
1 34040U 93036JB  26062.67617681  .00001308  00000-0  10349-2 0  9991
2 34040  73.9559 292.0746 0339307 229.7270 127.3729 13.68778230847077
Epoch: 2026-03-03T16:13Z
TLE epoch observation values (Epoch: 2026-03-03T16:13:41.676Z)
Latitude
-0.00002°
Longitude
-112.80088°
Altitude
1,163.753 km
Speed
7.194 km/s
True Right ascension
19h 28m 17s
True Declination
0° 00' 00"
Sunlit
Object was in daylight at epoch
Visualization orbit readout
Latitude
Unknown
Longitude
Unknown
Altitude
Unknown
Speed
Unknown
Apparent Right ascension
Unknown
Apparent Declination
Unknown
Sunlit
N/A
Visualization observer readout
Local Sidereal Time
04:17:41
Azimuth
Unknown
Elevation
Unknown
Doppler factor
Unknown
Orbital elements
Apogee altitude
1,252.064 km
Perigee altitude
751.26 km
Semi-major axis
7,379.799 km
Eccentricity
0.03393
Inclination
73.9559°
RAAN
292.0746°
Arg. of periapsis
229.727°
True anomaly
130.38383°
Mean anomaly
127.3729°
Eccentric anomaly
128.88617°
Mean motion
3.42355 °/min
Orbital period
105.15 mins
BSTAR
0.0010349
Loading maneuver chart data...
Computing Atmospheric mass density...

Documentation

Showing up to 5 results
|